TimeCEST,TemperatureF,Dew PointF,Humidity,Sea Level PressureIn,VisibilityMPH,Wind Direction,Wind SpeedMPH,Gust SpeedMPH,PrecipitationIn,Events,Conditions,WindDirDegrees,DateUTC
12:00 AM,53.6,50.0,88,30.09,6.2,East,3.5,-,N/A,,Unknown,90,2012-10-02 22:00:00
12:30 AM,53.6,50.0,88,30.09,6.2,NE,5.8,-,N/A,,Unknown,50,2012-10-02 22:30:00
1:00 AM,53.6,50.0,88,30.12,6.2,Variable,1.2,-,N/A,,Unknown,0,2012-10-02 23:00:00
1:30 AM,53.6,48.2,82,30.12,6.2,NNE,2.3,-,N/A,,Unknown,30,2012-10-02 23:30:00
2:00 AM,51.8,50.0,94,30.09,6.2,NNE,3.5,-,N/A,,Unknown,20,2012-10-03 00:00:00
2:30 AM,51.8,48.2,88,30.09,6.2,NNE,2.3,-,N/A,,Unknown,30,2012-10-03 00:30:00
3:00 AM,51.8,48.2,88,30.09,6.2,NNE,4.6,-,N/A,,Unknown,20,2012-10-03 01:00:00
3:30 AM,51.8,48.2,88,30.09,6.2,Variable,1.2,-,N/A,,Unknown,0,2012-10-03 01:30:00
4:00 AM,51.8,48.2,88,30.09,6.2,Calm,Calm,-,N/A,,Unknown,0,2012-10-03 02:00:00
4:30 AM,50.0,46.4,87,30.09,6.2,North,1.2,-,N/A,,Unknown,350,2012-10-03 02:30:00
5:00 AM,50.0,46.4,87,30.09,6.2,NW,2.3,-,N/A,,Unknown,320,2012-10-03 03:00:00
5:30 AM,50.0,46.4,87,30.09,6.2,Calm,Calm,-,N/A,,Unknown,0,2012-10-03 03:30:00
6:00 AM,50.0,46.4,87,30.09,6.2,Variable,2.3,-,N/A,,Unknown,0,2012-10-03 04:00:00
6:30 AM,48.2,46.4,93,30.09,6.2,NE,3.5,-,N/A,,Unknown,40,2012-10-03 04:30:00
7:00 AM,48.2,44.6,87,30.09,6.2,NNE,2.3,-,N/A,,Unknown,20,2012-10-03 05:00:00
7:30 AM,48.2,44.6,87,30.09,6.2,Variable,3.5,-,N/A,,Unknown,0,2012-10-03 05:30:00
8:00 AM,48.2,46.4,93,30.12,6.2,Calm,Calm,-,N/A,,Unknown,0,2012-10-03 06:00:00
8:30 AM,51.8,48.2,88,30.12,6.2,NNW,2.3,-,N/A,,Unknown,330,2012-10-03 06:30:00
9:00 AM,55.4,50.0,82,30.12,6.2,Calm,Calm,-,N/A,,Unknown,0,2012-10-03 07:00:00
9:30 AM,57.2,48.2,72,30.12,6.2,Variable,2.3,-,N/A,,Unknown,0,2012-10-03 07:30:00
10:00 AM,59.0,50.0,72,30.12,6.2,Variable,2.3,-,N/A,,Unknown,0,2012-10-03 08:00:00
10:30 AM,62.6,50.0,63,30.12,6.2,Calm,Calm,-,N/A,,Unknown,0,2012-10-03 08:30:00
11:00 AM,64.4,51.8,64,30.12,6.2,Calm,Calm,-,N/A,,Unknown,0,2012-10-03 09:00:00
11:30 AM,64.4,48.2,56,30.12,6.2,Variable,2.3,-,N/A,,Unknown,0,2012-10-03 09:30:00
12:00 PM,68.0,51.8,56,30.12,6.2,Variable,2.3,-,N/A,,Unknown,0,2012-10-03 10:00:00
12:30 PM,69.8,51.8,53,30.12,6.2,Calm,Calm,-,N/A,,Unknown,0,2012-10-03 10:30:00
1:00 PM,71.6,53.6,53,30.09,6.2,Variable,2.3,-,N/A,,Unknown,0,2012-10-03 11:00:00
1:30 PM,73.4,53.6,50,30.09,6.2,Variable,2.3,-,N/A,,Unknown,0,2012-10-03 11:30:00
2:00 PM,75.2,53.6,47,30.09,6.2,Variable,3.5,-,N/A,,Unknown,0,2012-10-03 12:00:00
2:30 PM,75.2,51.8,44,30.06,6.2,Variable,3.5,-,N/A,,Unknown,0,2012-10-03 12:30:00
3:00 PM,77.0,51.8,41,30.06,6.2,Variable,3.5,-,N/A,,Unknown,0,2012-10-03 13:00:00
3:30 PM,77.0,50.0,39,30.06,6.2,WSW,4.6,-,N/A,,Unknown,240,2012-10-03 13:30:00
4:00 PM,77.0,50.0,39,30.06,6.2,Variable,3.5,-,N/A,,Unknown,0,2012-10-03 14:00:00
4:30 PM,78.8,50.0,36,30.06,6.2,Variable,2.3,-,N/A,,Unknown,0,2012-10-03 14:30:00
5:00 PM,77.0,50.0,39,30.04,6.2,SSE,3.5,-,N/A,,Unknown,160,2012-10-03 15:00:00
5:30 PM,77.0,53.6,44,30.04,6.2,SSE,4.6,-,N/A,,Unknown,160,2012-10-03 15:30:00
6:00 PM,75.2,53.6,47,30.04,6.2,SSE,5.8,-,N/A,,Unknown,160,2012-10-03 16:00:00
6:30 PM,73.4,53.6,50,30.04,6.2,South,4.6,-,N/A,,Unknown,180,2012-10-03 16:30:00
7:00 PM,71.6,53.6,53,30.04,6.2,SSE,3.5,-,N/A,,Unknown,160,2012-10-03 17:00:00
7:30 PM,68.0,55.4,64,30.04,6.2,SE,3.5,-,N/A,,Unknown,140,2012-10-03 17:30:00
8:00 PM,64.4,53.6,68,30.06,6.2,ESE,2.3,-,N/A,,Unknown,120,2012-10-03 18:00:00
8:30 PM,64.4,53.6,68,30.06,6.2,South,2.3,-,N/A,,Unknown,170,2012-10-03 18:30:00
9:00 PM,66.2,55.4,68,30.06,6.2,SSE,3.5,-,N/A,,Unknown,160,2012-10-03 19:00:00
9:30 PM,60.8,53.6,77,30.06,6.2,East,3.5,-,N/A,,Unknown,90,2012-10-03 19:30:00
10:00 PM,59.0,55.4,88,30.06,6.2,ESE,5.8,-,N/A,,Unknown,120,2012-10-03 20:00:00
10:30 PM,59.0,55.4,88,30.09,6.2,SE,4.6,-,N/A,,Unknown,140,2012-10-03 20:30:00
11:00 PM,59.0,55.4,88,30.09,6.2,SE,4.6,-,N/A,,Unknown,140,2012-10-03 21:00:00
11:30 PM,57.2,53.6,88,30.09,6.2,SE,5.8,-,N/A,,Unknown,140,2012-10-03 21:30:00